El Dorado International Airport
SKBO : now visible

Airfield :











YOU CAN JOIN US ON...

 
LOGIN :

Register | Disclaimer

   EN    FR    IT 

 









Legend :    VFR   Marginal VFR   IFR   Intensive IFR   Very Intensive IFR
Visi :
Ceiling :
>= 8 km
>= 3000ft
5 to 8 km
1000 to 3000 ft
1500m to 5 km
500 to 1000 ft
800 to 1500m
200 to 500 ft
< 800m
< 200 ft
Symbols :   Thunderstorms  Fog  Heavy snow  Heavy precipitations  Wind > 20 kt







- Airport Elevation : 8361 ft
- IATA code : BOG


SKBO - El Dorado International

CURRENT METAR :
  • 152000Z 03012KT 9999 SCT020 20/08 A3029 NOSIG

EXPIRED METARs :
  • 151900Z 05010KT 9999 SCT020 21/09 A3031 NOSIG
  • 151800Z 11007KT 9999 BKN020 20/09 A3034 NOSIG

TAF TAF SKBO
Valid from the 15 at 18:00 until the 16 at 18:00 UTC


151630Z 1518/1618 06008KT 9999 BKN020
TEMPO 1518/1520 VCSH
BECMG 1520/1522 VRB02KT
PROB40
TEMPO 1521/1602 6000 RA SCT017TCU BKN080
BECMG 1609/1611 02007KT TX19/1518Z TN10/1611Z
SKED FIR / South America



MET'MAP, your aeronautical weather chart ! - Copyright ORBIFLY December 2007 - Disclaimer

ORBIFLY MET'MAP TEAM :

Programming & Development : Alexandra Zaïnal
Concept & Development : Baudouin d'Aumeries
Co-Development & Prog : Marc-Olivier Méhu
Technical & hardware support : Manuel Goepfert

Contact : metmap@orbifly.com




SOURCES & CREDITS :

   NOAA       Earth
Advisory